Погода в Ньюмане

Австралия     23°20′52″S   119°49′17″E
темп.,
°C
ветер,
м/с
пор.,
м/с
влажн.,
%
обл.,
%
осадки,
мм/ч
давл.,
гПа
погр.,
м
21 апреля, ср
ср2123:00+20ссв114220 0.0 101614
02:00+20ююв224417 0.0 101613
05:00+19ю22475 0.0 101611
08:00+22юв35390 0.0 1018228
11:00+27в54245 0.0 10171774
14:00+29вюв44200 0.0 10152784
17:00+28вюв44200 0.0 10152843
20:00+25юв34270 0.0 101747
22 апреля, чт
чт2223:00+23юв33300 0.0 101723
02:00+21в22290 0.0 101612
05:00+19юв223137 0.0 101711
08:00+22в48243 0.0 1019396
11:00+27всв66160 0.0 10181375
14:00+29в45140 0.0 10152482
17:00+28в45150 0.0 1015652
20:00+24в33207 0.0 101821
23 апреля, пт
пт2323:00+22вюв22242 0.0 101812
02:00+20вюв33255 0.0 101622
05:00+19вюв332999 0.0 101840
08:00+20в6122757 0.0 1019476
11:00+26всв88175 0.0 10181395
14:00+28в661552 0.0 10152250
17:00+27в561632 0.0 1015432
20:00+23юв33203 0.0 101827
24 апреля, сб
сб2423:00+21юв332387 0.0 101825
02:00+20юв33265 0.0 101714
05:00+18юв22292 0.0 101811
08:00+21в5102630 0.0 1020381
11:00+27всв78195 0.0 10191240
14:00+29св54175 0.0 10162164
17:00+28всв33184 0.0 1016177
20:00+25юв33224 0.0 101816
25 апреля, вс
вс2523:00+22вюв33260 0.0 101821
02:00+21в222823 0.0 101811
05:00+19в22304 0.0 101911
08:00+21всв59270 0.0 1021359
11:00+27св67190 0.0 10201334
14:00+28в44160 0.0 10172492
17:00+28вюв45160 0.0 1017556
20:00+24вюв33220 0.0 101929